DKH8115 ZSFZ-ZSWX

Flight info

Callsign DKH8115
Flight time N/A
Altitude 29100
Route RUPOX B221 AND G204 JTN
Aircraft A20N/M-SDE2E3FGHIRWXY/LB1

Departure

Time N/A
Airport Fuzhou Changle International Airport (ZSFZ)

Arrival

Time 2026-05-01 13:53
Airport Sunan Shuofang International Airport (ZSWX)
Time Latitude Longitude Altitude Speed Heading
2026-05-01 13:13 28.36546 120.68940 29160 ft 481 kts
2026-05-01 13:14 28.51246 120.70399 29170 ft 480 kts
2026-05-01 13:15 28.57924 120.71072 29169 ft 480 kts
2026-05-01 13:15 28.64668 120.71752 29162 ft 479 kts
2026-05-01 13:16 28.71261 120.72424 29156 ft 480 kts
2026-05-01 13:16 28.77973 120.73163 29158 ft 480 kts
2026-05-01 13:17 28.91333 120.74596 29151 ft 479 kts
2026-05-01 13:18 29.01346 120.75591 29144 ft 478 kts
2026-05-01 13:18 29.07923 120.76248 29141 ft 478 kts
2026-05-01 13:19 29.13031 120.76763 29143 ft 478 kts
2026-05-01 13:20 29.22276 120.77702 29143 ft 479 kts
2026-05-01 13:21 29.38065 120.79308 29134 ft 478 kts
2026-05-01 13:21 29.44734 120.79987 29126 ft 479 kts
2026-05-01 13:22 29.51172 120.80643 29115 ft 478 kts
2026-05-01 13:22 29.57700 120.81309 29110 ft 478 kts
2026-05-01 13:23 29.64029 120.81953 29110 ft 479 kts
2026-05-01 13:23 29.70760 120.82634 29112 ft 478 kts
2026-05-01 13:24 29.77407 120.83308 29107 ft 478 kts
2026-05-01 13:25 29.87427 120.84325 29097 ft 477 kts
2026-05-01 13:25 29.94062 120.85000 29092 ft 477 kts
2026-05-01 13:26 30.00010 120.86253 29074 ft 489 kts 17°
2026-05-01 13:26 30.02368 120.87610 29081 ft 496 kts 28°
2026-05-01 13:26 30.04786 120.89786 29078 ft 504 kts 40°
2026-05-01 13:26 30.07408 120.93451 29088 ft 510 kts 51°
2026-05-01 13:27 30.09467 120.96795 29085 ft 511 kts 51°
2026-05-01 13:28 30.17850 121.10075 29092 ft 511 kts 50°
2026-05-01 13:29 30.29322 121.22459 29091 ft 485 kts 12°
2026-05-01 13:30 30.42590 121.24373 29105 ft 478 kts
2026-05-01 13:31 30.49276 121.25264 29108 ft 478 kts
2026-05-01 13:32 30.65886 121.27579 28916 ft 479 kts
2026-05-01 13:33 30.75458 121.28919 27800 ft 471 kts
2026-05-01 13:33 30.82052 121.29838 26098 ft 472 kts
2026-05-01 13:34 30.88596 121.30750 24192 ft 475 kts
2026-05-01 13:34 30.94900 121.31634 22547 ft 472 kts
2026-05-01 13:35 31.01179 121.32520 21346 ft 461 kts
2026-05-01 13:35 31.04147 121.32935 20712 ft 458 kts
2026-05-01 13:36 31.10812 121.31975 19059 ft 433 kts 329°
2026-05-01 13:37 31.17024 121.22907 16474 ft 410 kts 292°
2026-05-01 13:37 31.18364 121.19605 15634 ft 409 kts 293°
2026-05-01 13:37 31.19599 121.16581 14911 ft 408 kts 293°
2026-05-01 13:37 31.20828 121.13590 14139 ft 409 kts 294°
2026-05-01 13:38 31.23295 121.07631 12615 ft 407 kts 294°
2026-05-01 13:38 31.24543 121.04622 11856 ft 404 kts 294°
2026-05-01 13:38 31.25738 121.01738 11328 ft 395 kts 294°
2026-05-01 13:39 31.26895 120.98954 11043 ft 366 kts 294°
2026-05-01 13:39 31.27974 120.96355 10798 ft 336 kts 294°
2026-05-01 13:39 31.28899 120.94125 10613 ft 310 kts 294°
2026-05-01 13:39 31.29806 120.91933 10443 ft 294 kts 294°
2026-05-01 13:40 31.30671 120.89837 10306 ft 282 kts 293°
2026-05-01 13:40 31.31520 120.87774 10189 ft 276 kts 294°
2026-05-01 13:40 31.32348 120.85760 10092 ft 272 kts 293°
2026-05-01 13:40 31.33165 120.83773 10010 ft 270 kts 293°
2026-05-01 13:41 31.33977 120.81793 9707 ft 272 kts 294°
2026-05-01 13:41 31.34798 120.79797 9381 ft 273 kts 294°
2026-05-01 13:41 31.35626 120.77781 9056 ft 273 kts 294°
2026-05-01 13:41 31.36446 120.75784 8741 ft 272 kts 294°
2026-05-01 13:42 31.37262 120.73794 8425 ft 272 kts 294°
2026-05-01 13:42 31.38082 120.71794 8110 ft 271 kts 294°
2026-05-01 13:42 31.38899 120.69800 7799 ft 270 kts 294°
2026-05-01 13:42 31.39718 120.67802 7485 ft 270 kts 294°
2026-05-01 13:43 31.40524 120.65833 7177 ft 269 kts 294°
2026-05-01 13:43 31.41326 120.63869 6873 ft 268 kts 294°
2026-05-01 13:43 31.42133 120.61896 6566 ft 267 kts 294°
2026-05-01 13:43 31.42933 120.59937 6262 ft 267 kts 294°
2026-05-01 13:44 31.43732 120.57986 6107 ft 258 kts 294°
2026-05-01 13:44 31.44485 120.56145 6063 ft 244 kts 294°
2026-05-01 13:44 31.45198 120.54402 6028 ft 231 kts 294°
2026-05-01 13:44 31.45884 120.52734 5997 ft 224 kts 295°
2026-05-01 13:45 31.46616 120.51138 5801 ft 225 kts 297°
2026-05-01 13:45 31.47367 120.49544 5538 ft 225 kts 297°
2026-05-01 13:45 31.48122 120.47948 5289 ft 224 kts 297°
2026-05-01 13:45 31.48873 120.46360 5052 ft 224 kts 297°
2026-05-01 13:46 31.49625 120.44766 4813 ft 223 kts 297°
2026-05-01 13:46 31.50374 120.43176 4586 ft 222 kts 297°
2026-05-01 13:46 31.51109 120.41613 4365 ft 220 kts 297°
2026-05-01 13:46 31.51771 120.40063 4212 ft 210 kts 288°
2026-05-01 13:47 31.52088 120.38468 3968 ft 203 kts 272°
2026-05-01 13:47 31.52028 120.36844 3732 ft 197 kts 256°
2026-05-01 13:47 31.51617 120.35334 3508 ft 193 kts 241°
2026-05-01 13:47 31.51128 120.34352 3354 ft 190 kts 230°
2026-05-01 13:48 31.50616 120.33624 3231 ft 188 kts 221°
2026-05-01 13:48 31.50155 120.33120 3134 ft 186 kts 214°
2026-05-01 13:48 31.46813 120.31680 2904 ft 177 kts 177°
2026-05-01 13:49 31.45616 120.31863 2700 ft 168 kts 161°
2026-05-01 13:49 31.44611 120.32384 2513 ft 151 kts 147°
2026-05-01 13:49 31.43824 120.33113 2297 ft 135 kts 134°
2026-05-01 13:49 31.43259 120.33948 2108 ft 127 kts 123°
2026-05-01 13:50 31.42871 120.34865 1913 ft 127 kts 113°
2026-05-01 13:50 31.42652 120.35864 1751 ft 128 kts 102°
2026-05-01 13:50 31.42616 120.36917 1570 ft 130 kts 91°
2026-05-01 13:50 31.42773 120.37954 1392 ft 132 kts 78°
2026-05-01 13:51 31.43126 120.38956 1212 ft 135 kts 67°
2026-05-01 13:51 31.43670 120.39864 1041 ft 138 kts 53°
2026-05-01 13:51 31.44405 120.40637 862 ft 141 kts 40°
2026-05-01 13:51 31.45302 120.41140 657 ft 145 kts 25°
2026-05-01 13:52 31.46083 120.41471 489 ft 144 kts 24°
2026-05-01 13:52 31.47011 120.41875 309 ft 142 kts 24°
2026-05-01 13:52 31.47940 120.42275 138 ft 141 kts 23°
2026-05-01 13:52 31.48846 120.42664 30 ft 132 kts 23°
2026-05-01 13:53 31.49440 120.42930 25 ft 98 kts 21°
2026-05-01 13:53 31.50186 120.43153 25 ft 38 kts 353°
2026-05-01 13:53 31.50295 120.43082 25 ft 10 kts 291°
2026-05-01 13:54 31.50319 120.43008 25 ft 5 kts 295°
2026-05-01 13:54 31.50355 120.42986 25 ft 6 kts
2026-05-01 13:54 31.50390 120.42986 25 ft 4 kts 331°
2026-05-01 13:54 31.50410 120.42950 25 ft 6 kts 290°
2026-05-01 13:55 31.50416 120.42929 25 ft 3 kts 289°
2026-05-01 13:55 31.50418 120.42921 25 ft 1 kts 291°
2026-05-01 13:55 31.50420 120.42917 25 ft 0 kts 291°